Flag for U.S.A. Weather past 2 weeks in Waterbury, Connecticut, U.S.A.

61 °F

Low clouds.

Feels Like: 61 °F
Forecast: 53 / 72 °F
Wind: 6 mph from Southwest

Location: Oxford

Current Time: Oct 9, 2015 at 7:10:45 AM

Latest Report: Oct 9, 2015 at 5:55 AM

Visibility: 6 mi

Pressure: 30.04 "Hg

Humidity: 72%

Dew point: 52 °F

Location of WaterburyLocation

Historic Weather in Waterbury — Graph


Waterbury temperature yesterday

Maximum temperature yesterday: 64 °F (at 1:50 PM)
Minimum temperature yesterday: 50 °F (at 5:35 AM)
Average temperature yesterday: 55 °F

Past Weeks' High & Low Weather Summary

High81 °F (Sep 29, 1:55 PM)83% (Sep 28, 11:50 AM)30.52 "Hg (Sep 28, 11:50 AM)
Low45 °F (Sep 27, 4:35 AM)43% (Sep 25, 12:52 PM)29.69 "Hg (Sep 30, 6:50 AM)
Average57 °F67%30.20 "Hg
* Reported Sep 24 5:15 AM — Oct 9 5:55 AM, Waterbury, Weather by CustomWeather, © 2015

Note: Actual official high and low records may vary slightly from our data, if they occured in-between our weather recording intervals... More about our weather records


Waterbury weather history for previous 24 hours

Time TempWeatherWind HumidityBarometerVisibility
5:55 AM
Fri, Oct 9
61 °FLow clouds.6 mph72%30.04 "Hg6 mi
5:35 AM61 °FLow clouds.7 mph72%30.04 "Hg8 mi
5:15 AM59 °FLow clouds.5 mph77%30.04 "Hg9 mi
4:55 AM59 °FOvercast.6 mph77%30.04 "Hg10 mi
4:35 AM59 °FOvercast.5 mph77%30.05 "Hg10 mi
4:15 AM57 °FOvercast.3 mph77%30.06 "Hg10 mi
3:55 AM57 °FOvercast.3 mph72%30.06 "Hg10 mi
3:35 AM57 °FOvercast.3 mph72%30.06 "Hg10 mi
3:15 AM55 °FOvercast.No wind72%30.07 "Hg10 mi
2:55 AM55 °FOvercast.No wind72%30.08 "Hg10 mi
2:35 AM55 °FPassing clouds.No wind72%30.08 "Hg10 mi
2:15 AM55 °FClear.3 mph72%30.09 "Hg10 mi
1:55 AM54 °FPassing clouds.No wind72%30.10 "Hg10 mi
1:35 AM55 °FPassing clouds.No wind72%30.10 "Hg10 mi
1:15 AM55 °FOvercast.5 mph72%30.10 "Hg10 mi
12:55 AM55 °FPartly cloudy.3 mph72%30.11 "Hg10 mi
12:35 AM55 °FMostly cloudy.3 mph72%30.12 "Hg10 mi
12:15 AM55 °FOvercast.3 mph72%30.12 "Hg10 mi
11:35 PM
Thu, Oct 8
54 °FOvercast.5 mph72%30.13 "Hg10 mi
10:55 PM54 °FPassing clouds.No wind72%30.14 "Hg10 mi
10:35 PM54 °FPartly cloudy.No wind72%30.14 "Hg10 mi
10:15 PM54 °FPassing clouds.3 mph72%30.15 "Hg10 mi
9:55 PM55 °FPassing clouds.5 mph67%30.15 "Hg10 mi
9:35 PM55 °FPassing clouds.No wind67%30.15 "Hg10 mi
9:15 PM55 °FPassing clouds.5 mph67%30.14 "Hg10 mi
8:50 PM55 °FClear.3 mph67%30.14 "Hg10 mi
7:50 PM55 °FClear.5 mph67%30.14 "Hg10 mi
6:50 PM57 °FSunny.5 mph63%30.13 "Hg10 mi
4:50 PM64 °FScattered clouds.8 mph52%30.11 "Hg10 mi
3:50 PM64 °FPartly sunny.6 mph52%30.11 "Hg10 mi
2:50 PM64 °FPartly sunny.6 mph52%30.11 "Hg10 mi
1:50 PM64 °FPartly sunny.No wind49%30.12 "Hg10 mi
12:50 PM63 °FPartly sunny.No wind52%30.15 "Hg10 mi
11:50 AM61 °FBroken clouds.3 mph55%30.16 "Hg10 mi
10:50 AM59 °FScattered clouds.8 mph55%30.16 "Hg10 mi
9:50 AM57 °FScattered clouds.7 mph63%30.17 "Hg10 mi
8:50 AM55 °FScattered clouds.8 mph67%30.16 "Hg10 mi
7:50 AM50 °FPassing clouds.No wind71%30.14 "Hg10 mi
Weather by CustomWeather, © 2015

See weather overviewHow to use our weather pages